Skagway, AK

4:02 AM AKDT on August 26, 2016 (GMT -0800)
Skagway

Weather History for PAGY - July, 2013

Change the Weather History Date:

Wednesday, July 3, 2013

  Actual Average Record
Temperature  
Mean Temperature 57 °F -  
Max Temperature 59 °F 63 °F 86 °F (1972)
Min Temperature 55 °F 48 °F 39 °F (1988)
Degree Days  
Heating Degree Days 8    
Growing Degree Days 7 (Base 50)    
Moisture  
Dew Point 48 °F    
Average Humidity 72    
Maximum Humidity 77    
Minimum Humidity 67    
Precipitation  
Precipitation 0.00 in - - ()
Sea Level Pressure  
Sea Level Pressure 30.05 in    
Wind  
Wind Speed 20 mph (SSW)    
Max Wind Speed 28 mph    
Max Gust Speed 34 mph    
Visibility 10 miles    
Events Rain    
Averages and records for this station are not official NWS values.
T = Trace of Precipitation, MM = Missing Value Source: NWS Daily Summary

Daily Weather History Graph

Daily Weather History Graph

Search for Another Location

Airport or City:

Trip Planner

Search our weather history database for the weather conditions in past years. The results will help you decide how hot, cold, wet, or windy it might be!

Date:

Astronomy

Jul. 03, 2013 Rise Set
Actual Time 3:51 AM AKDT 10:18 PM AKDT
Civil Twilight 2:25 AM AKDT 11:44 PM AKDT
Nautical Twilight Sun does not set Sun does not set
Astronomical Twilight Sun does not set Sun does not set
Moon 1:13 AM AKDT (7/3) 6:06 PM AKDT (7/3)
Length of Visible Light 21h 18m
Length of Day
18h 26m
Waning Crescent, 17% of the Moon is Illuminated
Jul 3
Waning Crescent
Jul 7
New
Jul 15
First Quarter
Jul 22
Full
Jul 29
Last Quarter

Hourly Weather History & Observations

Time (AKDT) Temp. Dew Point Humidity Pressure Visibility Wind Dir Wind Speed Gust Speed Precip Events Conditions
12:53 AM 55.9 °F 46.9 °F 72% 30.02 in 10.0 mi SSW 17.3 mph 27.6 mph N/A   Scattered Clouds
1:53 AM 55.9 °F 46.9 °F 72% 30.02 in 10.0 mi SSW 19.6 mph 26.5 mph N/A   Mostly Cloudy
2:53 AM 55.9 °F 46.9 °F 72% 30.02 in 10.0 mi SSW 18.4 mph - N/A   Mostly Cloudy
3:53 AM 55.9 °F 48.0 °F 75% 30.02 in 10.0 mi SSW 21.9 mph 28.8 mph N/A   Overcast
4:53 AM 55.0 °F 48.0 °F 77% 30.02 in 10.0 mi SSW 25.3 mph 34.5 mph N/A   Overcast
5:53 AM 55.9 °F 48.0 °F 75% 30.03 in 10.0 mi SSW 21.9 mph 31.1 mph N/A   Overcast
6:53 AM 55.9 °F 48.0 °F 75% 30.05 in 10.0 mi SSW 21.9 mph 29.9 mph N/A   Overcast
7:53 AM 55.9 °F 48.0 °F 75% 30.04 in 10.0 mi SSW 25.3 mph 33.4 mph N/A   Overcast
8:53 AM 57.0 °F 48.0 °F 72% 30.05 in 10.0 mi SSW 20.7 mph 27.6 mph N/A   Partly Cloudy
9:53 AM 57.9 °F 48.0 °F 70% 30.06 in 10.0 mi SSW 20.7 mph 29.9 mph N/A   Mostly Cloudy
10:53 AM 55.9 °F 48.9 °F 77% 30.06 in 10.0 mi SSW 24.2 mph 29.9 mph 0.00 in Rain Light Rain
11:53 AM 57.0 °F 48.9 °F 74% 30.07 in 10.0 mi SSW 24.2 mph 29.9 mph 0.00 in   Overcast
12:53 PM 57.0 °F 48.0 °F 72% 30.06 in 10.0 mi SSW 27.6 mph - N/A   Mostly Cloudy
1:53 PM 57.9 °F 48.9 °F 72% 30.07 in 10.0 mi SSW 23.0 mph 29.9 mph N/A   Mostly Cloudy
2:53 PM 57.9 °F 48.9 °F 72% 30.07 in 10.0 mi SSW 20.7 mph 28.8 mph N/A   Overcast
3:53 PM 57.9 °F 48.9 °F 72% 30.07 in 10.0 mi SSW 21.9 mph 29.9 mph N/A   Overcast
4:53 PM 59.0 °F 48.0 °F 67% 30.06 in 10.0 mi SSW 20.7 mph 28.8 mph 0.00 in   Mostly Cloudy
5:53 PM 57.9 °F 48.9 °F 72% 30.06 in 10.0 mi SSW 19.6 mph 29.9 mph N/A   Mostly Cloudy
6:53 PM 57.9 °F 46.9 °F 67% 30.06 in 10.0 mi SSW 16.1 mph 23.0 mph N/A   Overcast
7:53 PM 57.0 °F 48.0 °F 72% 30.06 in 10.0 mi SSW 17.3 mph - N/A   Overcast
8:53 PM 57.0 °F 48.0 °F 72% 30.07 in 10.0 mi SSW 12.7 mph 24.2 mph 0.00 in   Overcast
9:53 PM 57.0 °F 46.9 °F 69% 30.09 in 10.0 mi SSW 16.1 mph - N/A   Overcast
10:53 PM 55.9 °F 46.9 °F 72% 30.09 in 10.0 mi SSW 13.8 mph - N/A   Overcast
11:53 PM 55.9 °F 46.0 °F 69% 30.08 in 10.0 mi SSW 13.8 mph 19.6 mph N/A   Overcast